Zurück zum Katalog

CZ-3C DEB

AktivGTO
NORAD 40856·DEBRIS·🇨🇳 China

Gestartet Feb 24, 2012 von Xichang Satellite Launch Center

Loading…

TLE

VeraltetSource: Space-Track

Epoche: Sep 11, 2026, 13:42 UTC

1 40856U 12008W   26254.57100551  .00000273  00000-0  44887-2 0  9992
2 40856  21.3567 246.1180 7063061  46.3279 353.8968  2.35375309101231

Verfolge CZ-3C DEB in Echtzeit mit AllMySat

Download on the App Store